DW5963 Weather Reports


Display with metric or nautical units.
time (UTC)temp
F
wind
direction
speed
MPH
gust
MPH
rain 1hr
in
rain 24hr
in
rain mn
in
humidity
%
barometer
mb
20260903222511 81 360 4.0 0.0 0.00 0.00 0.00 50 1004.3
20260903222013 81 360 5.0 0.0 0.00 0.00 0.00 51 1004.3
20260903221525 81 360 5.0 0.0 0.00 0.00 0.00 51 1004.1
20260903221013 81 360 6.0 0.0 0.00 0.00 0.00 51 1004.1
20260903220510 81 360 5.0 0.0 0.00 0.00 0.00 52 1004.2
20260903220010 81 360 5.0 0.0 0.00 0.00 0.00 52 1004.1
20260903215511 82 360 5.0 0.0 0.00 0.00 0.00 52 1004.0
20260903215010 82 360 6.0 0.0 0.00 0.00 0.00 51 1004.0
20260903214510 83 360 6.0 0.0 0.00 0.00 0.00 52 1004.0
20260903213510 82 360 6.0 0.0 0.00 0.00 0.00 51 1004.0
20260903213018 83 360 5.0 0.0 0.00 0.00 0.00 51 1004.0
20260903212509 83 360 5.0 0.0 0.00 0.00 0.00 52 1003.9
20260903212011 84 360 4.0 0.0 0.00 0.00 0.00 50 1003.9
20260903211509 84 360 3.0 0.0 0.00 0.00 0.00 47 1003.9
20260903211008 83 360 2.0 0.0 0.00 0.00 0.00 48 1003.8
20260903210508 83 360 2.0 0.0 0.00 0.00 0.00 49 1003.8
20260903210011 84 360 3.0 0.0 0.00 0.00 0.00 48 1003.8
20260903205510 83 360 4.0 0.0 0.00 0.00 0.00 48 1003.8
20260903205006 83 360 4.0 0.0 0.00 0.00 0.00 49 1003.8
20260903204507 83 360 3.0 0.0 0.00 0.00 0.00 50 1003.8
20260903203507 82 360 2.0 0.0 0.00 0.00 0.00 50 1004.0
20260903203006 82 360 3.0 0.0 0.00 0.00 0.00 50 1004.1
20260903202503 83 360 3.0 0.0 0.00 0.00 0.00 52 1004.2
20260903202003 82 360 2.0 0.0 0.00 0.00 0.00 53 1004.3
20260903201503 81 360 2.0 0.0 0.00 0.00 0.00 55 1004.3
20260903201059 81 360 2.0 0.0 0.00 0.00 0.00 55 1004.4
20260903200559 80 360 3.0 0.0 0.00 0.00 0.00 55 1004.3
20260903200059 81 360 2.0 0.0 0.00 0.00 0.00 55 1004.2
20260903195601 80 360 3.0 0.0 0.00 0.00 0.00 56 1004.2
20260903195057 80 360 4.0 0.0 0.00 0.00 0.00 57 1004.3
20260903194557 80 360 4.0 0.0 0.00 0.00 0.00 57 1004.3
20260903193558 79 360 4.0 0.0 0.00 0.00 0.00 59 1004.1
20260903193056 79 360 3.0 0.0 0.00 0.00 0.00 60 1004.0
20260903192555 78 360 2.0 0.0 0.00 0.00 0.00 60 1004.2
20260903192053 78 360 3.0 0.0 0.00 0.00 0.00 62 1004.4
20260903191552 77 188 3.0 0.0 0.00 0.00 0.00 64 1004.4
20260903191051 76 360 3.0 0.0 0.00 0.00 0.00 64 1004.5
20260903190553 75 88 3.0 0.0 0.00 0.00 0.00 64 1004.5
20260903190051 75 234 3.0 0.0 0.00 0.00 0.00 64 1004.6
20260903185550 75 237 4.0 0.0 0.00 0.00 0.00 65 1004.6
20260903185052 75 181 5.0 0.0 0.00 0.00 0.00 66 1004.5
20260903184550 75 360 4.0 0.0 0.00 0.00 0.00 66 1004.5
20260903183550 75 188 4.0 0.0 0.00 0.00 0.00 65 1004.4
20260903183050 75 360 4.0 0.0 0.00 0.00 0.00 65 1004.4
20260903182550 76 123 4.0 0.0 0.00 0.00 0.00 65 1004.5
20260903182049 76 360 5.0 0.0 0.00 0.00 0.00 65 1004.4
20260903181549 76 103 7.0 0.0 0.00 0.00 0.00 65 1004.5
20260903181048 75 136 7.0 0.0 0.00 0.00 0.00 66 1004.7
20260903180548 75 167 6.0 0.0 0.00 0.00 0.00 66 1004.7
20260903180110 74 174 6.0 0.0 0.00 0.00 0.00 67 1004.6
20260903175547 74 182 6.0 0.0 0.00 0.00 0.00 68 1004.7
20260903175044 74 188 6.0 0.0 0.00 0.00 0.00 69 1004.8
20260903174544 73 360 7.0 0.0 0.00 0.00 0.00 69 1004.8
20260903173543 73 173 7.0 0.0 0.00 0.00 0.00 69 1004.9
20260903173043 73 180 7.0 0.0 0.00 0.00 0.00 69 1005.1
20260903172542 73 360 8.0 0.0 0.00 0.00 0.00 69 1005.1
20260903172042 73 360 7.0 0.0 0.00 0.00 0.00 69 1005.4
20260903171548 72 360 6.0 0.0 0.00 0.00 0.00 70 1005.6
20260903171040 72 171 6.0 0.0 0.00 0.00 0.00 69 1005.4
20260903170541 72 360 6.0 0.0 0.00 0.00 0.00 70 1005.1
20260903170041 72 360 5.0 0.0 0.00 0.00 0.00 70 1004.9
20260903165544 72 95 4.0 0.0 0.00 0.00 0.00 69 1004.7
20260903165044 72 186 4.0 0.0 0.00 0.00 0.00 69 1005.4
20260903164545 72 360 4.0 0.0 0.00 0.00 0.00 71 1005.1
20260903163540 71 360 5.0 0.0 0.00 0.00 0.00 71 1005.4
20260903163044 71 360 4.0 0.0 0.00 0.00 0.00 72 1005.4
20260903162543 70 360 4.0 0.0 0.00 0.00 0.00 74 1005.2
20260903162039 69 360 4.0 0.0 0.00 0.00 0.00 75 1005.4
20260903161538 69 360 4.0 0.0 0.00 0.00 0.00 75 1005.5
20260903161038 68 360 3.0 0.0 0.00 0.00 0.00 75 1005.6
20260903160539 68 360 2.0 0.0 0.00 0.00 0.00 75 1005.4
20260903160039 68 360 3.0 0.0 0.00 0.00 0.00 75 1005.4
20260903155542 68 360 3.0 0.0 0.00 0.00 0.00 75 1005.5
20260903155039 68 360 3.0 0.0 0.00 0.00 0.00 76 1005.5
20260903154538 68 360 4.0 0.0 0.00 0.00 0.00 75 1005.6
20260903153537 68 360 4.0 0.0 0.00 0.00 0.00 76 1005.4
20260903153037 68 360 2.0 0.0 0.00 0.00 0.00 77 1005.5
20260903152537 67 360 2.0 0.0 0.00 0.00 0.00 78 1005.2
20260903152042 67 360 3.0 0.0 0.00 0.00 0.00 79 1005.0
20260903151536 66 360 4.0 0.0 0.00 0.00 0.00 80 1004.7
20260903151037 66 360 4.0 0.0 0.00 0.00 0.00 80 1005.2
20260903150537 66 360 6.0 0.0 0.00 0.00 0.00 80 1005.4
20260903150038 66 360 6.0 0.0 0.00 0.00 0.00 80 1005.5
20260903145538 66 360 6.0 0.0 0.00 0.00 0.00 81 1005.3
20260903145036 65 360 9.0 0.0 0.00 0.00 0.00 82 1004.1
20260903144537 65 360 9.0 0.0 0.00 0.00 0.00 82 1003.8
20260903143535 65 360 7.0 0.0 0.00 0.00 0.00 82 1003.8
20260903143036 65 360 6.0 0.0 0.00 0.00 0.00 82 1004.1
20260903142536 65 360 8.0 0.0 0.00 0.00 0.00 82 1004.2
20260903142036 64 360 7.0 0.0 0.00 0.00 0.00 83 1003.7
20260903141536 64 360 5.0 0.0 0.00 0.00 0.00 84 1004.4
20260903141037 64 360 3.0 0.0 0.00 0.00 0.00 84 1004.6
20260903140539 64 360 2.0 0.0 0.00 0.00 0.00 84 1005.6
20260903140035 64 360 5.0 0.0 0.00 0.00 0.00 84 1006.1
20260903135534 64 360 5.0 0.0 0.00 0.00 0.00 85 1006.4
20260903135036 63 360 2.0 0.0 0.00 0.00 0.00 85 1005.4
20260903134533 63 360 1.0 0.0 0.00 0.00 0.00 84 1005.7
20260903133532 63 360 5.0 0.0 0.00 0.00 0.00 85 1005.9
20260903133032 63 360 6.0 0.0 0.00 0.00 0.00 86 1005.2
20260903132531 63 360 5.0 0.0 0.00 0.00 0.00 86 1004.8
20260903132031 63 360 4.0 0.0 0.00 0.00 0.00 87 1005.0
20260903131531 62 360 3.0 0.0 0.00 0.00 0.00 88 1005.1
20260903131031 61 360 1.0 0.0 0.00 0.00 0.00 89 1005.2
20260903130530 60 360 0.0 0.0 0.00 0.00 0.00 90 1005.4
20260903130031 59 360 1.0 0.0 0.00 0.00 0.00 89 1005.2
20260903125531 59 360 1.0 0.0 0.00 0.00 0.00 88 1005.0
20260903125028 59 360 2.0 0.0 0.00 0.00 0.00 87 1004.4
20260903124527 59 360 3.0 0.0 0.00 0.00 0.00 87 1004.2
20260903123527 59 360 1.0 0.0 0.00 0.00 0.00 86 1004.1
20260903123027 60 360 0.0 0.0 0.00 0.00 0.00 85 1004.1
20260903122526 60 360 0.0 0.0 0.00 0.00 0.00 84 1004.1
20260903122024 61 360 0.0 0.0 0.00 0.00 0.00 85 1004.0
20260903121524 61 360 1.0 0.0 0.00 0.00 0.00 85 1004.0
20260903121023 61 360 1.0 0.0 0.00 0.00 0.00 85 1004.1
20260903120523 61 360 1.0 0.0 0.00 0.00 0.00 85 1004.1
20260903120022 61 360 2.0 0.0 0.00 0.00 0.00 86 1004.0
20260903115522 61 360 4.0 0.0 0.00 0.00 0.00 86 1004.0
20260903115021 61 360 4.0 0.0 0.00 0.00 0.00 85 1004.0
20260903114521 61 360 3.0 0.0 0.00 0.00 0.00 85 1003.4
20260903113521 62 360 2.0 0.0 0.00 0.00 0.00 84 1003.9
20260903113032 62 360 2.0 0.0 0.00 0.00 0.00 84 1004.5
20260903112522 62 360 1.0 0.0 0.00 0.00 0.00 83 1004.5
20260903112023 62 360 2.0 0.0 0.00 0.00 0.00 83 1004.0
20260903111519 62 360 3.0 0.0 0.00 0.00 0.00 83 1003.5
20260903111019 62 360 4.0 0.0 0.00 0.00 0.00 83 1003.6
20260903110521 62 360 5.0 0.0 0.00 0.00 0.00 83 1003.6
20260903110039 62 360 5.0 0.0 0.00 0.00 0.00 83 1003.4
20260903105517 63 360 6.0 0.0 0.00 0.00 0.00 83 1003.5
20260903105018 63 360 9.0 0.0 0.00 0.00 0.00 83 1003.7
20260903104517 63 360 11.0 0.0 0.00 0.00 0.00 84 1003.5
20260903103520 63 360 13.0 0.0 0.00 0.00 0.00 84 1003.6
20260903103015 63 360 14.0 0.0 0.00 0.00 0.00 84 1003.6
20260903102514 63 360 14.0 0.0 0.00 0.00 0.00 83 1003.6
20260903102013 63 360 13.0 0.0 0.00 0.00 0.00 84 1003.6
20260903101513 63 360 11.0 0.0 0.00 0.00 0.00 84 1003.8
20260903101012 63 360 11.0 0.0 0.00 0.00 0.00 83 1003.4
20260903100511 63 360 11.0 0.0 0.00 0.00 0.00 83 1003.4
20260903100009 63 360 11.0 0.0 0.00 0.00 0.00 82 1003.5
20260903095508 63 360 11.0 0.0 0.00 0.00 0.00 81 1003.7
20260903095007 64 360 11.0 0.0 0.00 0.00 0.00 79 1003.7
20260903094520 65 360 10.0 0.0 0.00 0.00 0.00 75 1003.7
20260903093508 67 360 9.0 0.0 0.00 0.00 0.00 70 1003.5
20260903093006 67 360 9.0 0.0 0.00 0.00 0.00 69 1003.4
20260903092505 67 360 9.0 0.0 0.00 0.00 0.00 70 1003.5
20260903092005 67 360 7.0 0.0 0.00 0.00 0.00 71 1003.6
20260903091504 66 360 6.0 0.0 0.00 0.00 0.00 73 1003.8
20260903091004 66 360 6.0 0.0 0.00 0.00 0.00 74 1003.7
20260903090504 65 360 6.0 0.0 0.00 0.00 0.00 75 1003.6
20260903090004 65 360 7.0 0.0 0.00 0.00 0.00 76 1003.9
20260903085503 65 360 7.0 0.0 0.00 0.00 0.00 76 1004.0
20260903085003 65 360 7.0 0.0 0.00 0.00 0.00 76 1004.0
20260903084502 65 360 6.0 0.0 0.00 0.00 0.00 76 1004.2
20260903083501 65 360 6.0 0.0 0.00 0.00 0.00 75 1004.5
20260903083002 65 360 6.0 0.0 0.00 0.00 0.00 75 1004.6
20260903082600 65 360 6.0 0.0 0.00 0.00 0.00 75 1004.5
20260903082101 65 360 6.0 0.0 0.00 0.00 0.00 75 1004.5
20260903081612 65 360 6.0 0.0 0.00 0.00 0.00 75 1004.6
20260903081059 65 360 6.0 0.0 0.00 0.00 0.00 74 1004.5
20260903080600 66 360 9.0 0.0 0.00 0.00 0.00 74 1004.4
20260903080058 66 360 11.0 0.0 0.00 0.00 0.00 72 1004.6
20260903075557 67 360 10.0 0.0 0.00 0.00 0.00 71 1004.5
20260903075055 67 360 11.0 0.0 0.00 0.00 0.00 69 1004.5
20260903074605 68 360 11.0 0.0 0.00 0.00 0.00 67 1004.6
20260903073552 71 360 11.0 0.0 0.00 0.00 0.00 61 1004.8
20260903073050 72 360 8.0 0.0 0.00 0.00 0.00 60 1004.8
20260903072550 74 360 4.0 0.0 0.00 0.00 0.00 65 1004.8
20260903072050 74 360 3.0 0.0 0.00 0.00 0.00 65 1004.7
20260903071553 74 360 5.0 0.0 0.00 0.00 0.00 66 1004.8
20260903071049 74 360 9.0 0.0 0.00 0.00 0.00 66 1004.9
20260903070553 73 360 13.0 0.0 0.00 0.00 0.00 66 1004.9
20260903070050 72 360 10.0 0.0 0.00 0.00 0.00 68 1004.8
20260903065551 72 360 8.0 0.0 0.00 0.00 0.00 67 1004.5
20260903065049 72 360 9.0 0.0 0.00 0.00 0.00 67 1002.8
20260903064551 72 360 10.0 0.0 0.00 0.00 0.00 67 1002.9
20260903063550 72 360 11.0 0.0 0.00 0.00 0.00 68 1002.5
20260903063049 72 360 10.0 0.0 0.00 0.00 0.00 68 1002.3
20260903062553 72 360 10.0 0.0 0.00 0.00 0.00 68 1002.2
20260903062047 72 360 9.0 0.0 0.00 0.00 0.00 68 1002.1
20260903061553 72 360 10.0 0.0 0.00 0.00 0.00 67 1002.2
20260903061048 72 360 9.0 0.0 0.00 0.00 0.00 66 1002.3
20260903060548 73 360 9.0 0.0 0.00 0.00 0.00 66 1002.4
20260903060051 73 360 10.0 0.0 0.00 0.00 0.00 65 1002.7
20260903055547 73 360 10.0 0.0 0.00 0.00 0.00 65 1002.7
20260903055047 73 360 11.0 0.0 0.00 0.00 0.00 65 1002.8
20260903054550 73 360 10.0 0.0 0.00 0.00 0.00 65 1002.8
20260903053550 72 360 10.0 0.0 0.00 0.00 0.00 67 1002.9
20260903053104 72 360 11.0 0.0 0.00 0.00 0.00 67 1002.8
20260903052548 72 360 10.0 0.0 0.00 0.00 0.00 68 1002.6
20260903052050 72 360 9.0 0.0 0.00 0.00 0.00 68 1002.3
20260903051552 72 360 10.0 0.0 0.00 0.00 0.00 68 1002.2
20260903051046 72 360 9.0 0.0 0.00 0.00 0.00 68 1002.1
20260903050548 72 360 9.0 0.0 0.00 0.00 0.00 69 1002.3
20260903050045 72 360 9.0 0.0 0.00 0.00 0.00 69 1002.2
20260903045545 72 360 8.0 0.0 0.00 0.00 0.00 69 1002.4
20260903045043 72 360 8.0 0.0 0.00 0.00 0.00 68 1002.7
20260903044552 72 360 8.0 0.0 0.00 0.00 0.00 68 1002.9
20260903043545 73 360 8.0 0.0 0.00 0.00 0.00 68 1003.2
20260903043043 73 360 8.0 0.0 0.00 0.00 0.00 68 1003.3
20260903042544 73 360 8.0 0.0 0.00 0.00 0.00 68 1003.3
20260903042044 73 360 7.0 0.0 0.00 0.00 0.00 68 1003.5
20260903041543 73 360 7.0 0.0 0.00 0.00 0.00 68 1003.6
20260903041042 73 360 7.0 0.0 0.00 0.00 0.00 68 1003.7
20260903040543 73 360 7.0 0.0 0.00 0.00 0.00 67 1003.7
20260903040043 73 360 7.0 0.0 0.00 0.00 0.00 67 1003.7
20260903035542 73 360 6.0 0.0 0.00 0.00 0.00 67 1003.8
20260903035042 74 360 6.0 0.0 0.00 0.00 0.00 67 1003.9
20260903034542 74 360 7.0 0.0 0.00 0.00 0.00 66 1003.7
20260903033543 74 360 8.0 0.0 0.00 0.00 0.00 66 1003.8
20260903033041 74 360 8.0 0.0 0.00 0.00 0.00 65 1003.7
20260903032541 75 360 9.0 0.0 0.00 0.00 0.00 65 1003.7
20260903032040 75 360 9.0 0.0 0.00 0.00 0.00 65 1003.7
20260903031540 75 360 9.0 0.0 0.00 0.00 0.00 64 1003.7
20260903031040 75 360 9.0 0.0 0.00 0.00 0.00 64 1003.7
20260903030540 75 360 9.0 0.0 0.00 0.00 0.00 64 1003.6
20260903030044 75 360 8.0 0.0 0.00 0.00 0.00 64 1003.7
20260903025540 75 360 8.0 0.0 0.00 0.00 0.00 64 1003.8
20260903025040 75 360 8.0 0.0 0.00 0.00 0.00 64 1003.9
20260903024545 75 360 9.0 0.0 0.00 0.00 0.00 64 1003.7
20260903023542 76 120 10.0 0.0 0.00 0.00 0.00 62 1003.5
20260903023041 76 121 10.0 0.0 0.00 0.00 0.00 62 1003.5
20260903022540 77 115 10.0 0.0 0.00 0.00 0.00 62 1003.6
20260903022040 77 123 11.0 0.0 0.00 0.00 0.00 61 1003.8
20260903021546 77 114 11.0 0.0 0.00 0.00 0.00 61 1003.9
20260903021039 77 126 12.0 0.0 0.00 0.00 0.00 60 1003.9
20260903020540 78 116 12.0 0.0 0.00 0.00 0.00 60 1003.8
20260903020039 78 126 12.0 0.0 0.00 0.00 0.00 60 1003.6
20260903015540 78 121 13.0 0.0 0.00 0.00 0.00 60 1003.5
20260903015038 78 123 12.0 0.0 0.00 0.00 0.00 59 1003.5
20260903014543 78 128 12.0 0.0 0.00 0.00 0.00 59 1003.5
20260903013540 79 360 11.0 0.0 0.00 0.00 0.00 58 1003.6
20260903013040 79 360 11.0 0.0 0.00 0.00 0.00 58 1003.6
20260903012539 79 360 11.0 0.0 0.00 0.00 0.00 57 1003.6
20260903012039 80 360 12.0 0.0 0.00 0.00 0.00 57 1003.4
20260903011542 80 360 12.0 0.0 0.00 0.00 0.00 56 1003.4
20260903011039 81 360 12.0 0.0 0.00 0.00 0.00 55 1003.4
20260903010539 81 360 12.0 0.0 0.00 0.00 0.00 54 1003.3
20260903010039 82 360 12.0 0.0 0.00 0.00 0.00 54 1003.3
20260903005541 82 360 12.0 0.0 0.00 0.00 0.00 53 1003.3
20260903005038 82 360 12.0 0.0 0.00 0.00 0.00 52 1003.3
20260903004542 83 360 12.0 0.0 0.00 0.00 0.00 52 1003.3
20260903003537 83 360 13.0 0.0 0.00 0.00 0.00 51 1003.3
20260903003036 84 360 12.0 0.0 0.00 0.00 0.00 50 1003.2
20260903002537 84 360 11.0 0.0 0.00 0.00 0.00 50 1003.2
20260903002036 84 360 11.0 0.0 0.00 0.00 0.00 50 1003.3
20260903001536 84 360 11.0 0.0 0.00 0.00 0.00 50 1003.2
20260903001035 84 360 12.0 0.0 0.00 0.00 0.00 48 1003.3
20260903000535 85 360 14.0 0.0 0.00 0.00 0.00 47 1003.3
20260903000035 85 360 14.0 0.0 0.00 0.00 0.00 47 1003.3
20260902235535 85 360 13.0 0.0 0.00 0.00 0.00 47 1003.2
20260902235033 86 360 13.0 0.0 0.00 0.00 0.00 48 1003.4
20260902234533 86 360 13.0 0.0 0.00 0.00 0.00 48 1003.4
20260902233533 86 360 13.0 0.0 0.00 0.00 0.00 46 1003.6
20260902233037 87 360 13.0 0.0 0.00 0.00 0.00 45 1003.6
20260902232533 87 360 12.0 0.0 0.00 0.00 0.00 46 1003.7
20260902232032 87 360 12.0 0.0 0.00 0.00 0.00 46 1003.6
20260902231536 87 360 12.0 0.0 0.00 0.00 0.00 46 1003.7
20260902231034 87 360 12.0 0.0 0.00 0.00 0.00 46 1003.8
20260902230531 86 360 12.0 0.0 0.00 0.00 0.00 47 1003.8
20260902230031 85 360 12.0 0.0 0.00 0.00 0.00 46 1003.8
20260902225530 87 360 13.0 0.0 0.00 0.00 0.00 44 1003.8
20260902225031 87 360 14.0 0.0 0.00 0.00 0.00 44 1003.7
20260902224530 86 360 14.0 0.0 0.00 0.00 0.00 46 1003.7
20260902223530 87 360 13.0 0.0 0.00 0.00 0.00 43 1003.7
20260902223030 87 360 13.0 0.0 0.00 0.00 0.00 45 1003.7
20260902222530 86 360 13.0 0.0 0.00 0.00 0.00 46 1003.8